Time,TemperatureF,DewpointF,PressureIn,WindDirection,WindDirectionDegrees,WindSpeedMPH,WindSpeedGustMPH,Humidity,HourlyPrecipIn,Conditions,Clouds,dailyrainin,SoftwareType,DateUTC
2013-07-08 00:13:00,70.9,70.3,29.93,SSE,157,1.7,-999.0,98,-99.99,,,0.00,Acu-Link.com,2013-07-08 04:13:00,
2013-07-08 00:29:00,70.7,70.1,29.93,SSW,202,0.0,-999.0,98,-99.99,,,0.00,Acu-Link.com,2013-07-08 04:29:00,
2013-07-08 00:44:00,70.3,69.7,29.94,SSE,157,0.0,-999.0,98,-99.99,,,0.00,Acu-Link.com,2013-07-08 04:44:00,
2013-07-08 00:59:00,70.2,69.6,29.94,South,180,0.0,-999.0,98,-99.99,,,0.00,Acu-Link.com,2013-07-08 04:59:00,
2013-07-08 01:15:00,70.0,69.4,29.94,WNW,292,0.0,-999.0,98,-99.99,,,0.00,Acu-Link.com,2013-07-08 05:15:00,
2013-07-08 01:30:00,69.8,69.2,29.94,ESE,112,0.0,-999.0,98,-99.99,,,0.01,Acu-Link.com,2013-07-08 05:30:00,
2013-07-08 01:45:00,69.8,69.2,29.94,SW,225,0.0,-999.0,98,-99.99,,,0.01,Acu-Link.com,2013-07-08 05:45:00,
2013-07-08 02:00:00,69.8,69.2,29.93,SSE,157,0.0,-999.0,98,-99.99,,,0.01,Acu-Link.com,2013-07-08 06:00:00,
2013-07-08 02:16:00,69.6,69.0,29.94,NNE,22,0.0,-999.0,98,-99.99,,,0.01,Acu-Link.com,2013-07-08 06:16:00,
2013-07-08 02:31:00,69.4,68.8,29.94,South,180,0.0,-999.0,98,-99.99,,,0.01,Acu-Link.com,2013-07-08 06:31:00,
2013-07-08 02:46:00,69.4,68.8,29.94,East,90,0.0,-999.0,98,-99.99,,,0.01,Acu-Link.com,2013-07-08 06:46:00,
2013-07-08 03:01:00,69.3,68.7,29.93,SSW,202,0.0,-999.0,98,-99.99,,,0.01,Acu-Link.com,2013-07-08 07:01:00,
2013-07-08 03:17:00,69.3,68.7,29.92,ESE,112,0.0,-999.0,98,-99.99,,,0.01,Acu-Link.com,2013-07-08 07:17:00,
2013-07-08 03:32:00,69.3,68.7,29.92,SE,135,0.0,-999.0,98,-99.99,,,0.01,Acu-Link.com,2013-07-08 07:32:00,
2013-07-08 03:47:00,69.1,68.5,29.93,SSE,157,0.0,-999.0,98,-99.99,,,0.01,Acu-Link.com,2013-07-08 07:47:00,
2013-07-08 04:03:00,68.9,68.3,29.93,SE,135,0.0,-999.0,98,-99.99,,,0.01,Acu-Link.com,2013-07-08 08:03:00,
2013-07-08 04:18:00,68.9,68.3,29.93,SSW,202,0.0,-999.0,98,-99.99,,,0.01,Acu-Link.com,2013-07-08 08:18:00,
2013-07-08 04:33:00,68.9,68.3,29.93,South,180,0.0,-999.0,98,-99.99,,,0.01,Acu-Link.com,2013-07-08 08:33:00,
2013-07-08 04:49:00,68.7,68.1,29.93,NW,315,0.0,-999.0,98,-99.99,,,0.01,Acu-Link.com,2013-07-08 08:49:00,
2013-07-08 05:04:00,68.7,68.1,29.93,SE,135,0.0,-999.0,98,-99.99,,,0.01,Acu-Link.com,2013-07-08 09:04:00,
2013-07-08 05:19:00,68.7,68.1,29.95,West,270,0.0,-999.0,98,-99.99,,,0.01,Acu-Link.com,2013-07-08 09:19:00,
2013-07-08 05:34:00,68.7,68.1,29.95,WNW,292,0.0,-999.0,98,-99.99,,,0.01,Acu-Link.com,2013-07-08 09:34:00,
2013-07-08 05:50:00,68.7,68.1,29.95,NNE,22,0.0,-999.0,98,-99.99,,,0.01,Acu-Link.com,2013-07-08 09:50:00,
2013-07-08 06:05:00,68.9,68.3,29.95,NE,45,0.0,-999.0,98,-99.99,,,0.01,Acu-Link.com,2013-07-08 10:05:00,
2013-07-08 06:20:00,68.9,68.3,29.95,NNE,22,0.0,-999.0,98,-99.99,,,0.01,Acu-Link.com,2013-07-08 10:20:00,
2013-07-08 06:36:00,68.9,68.3,29.95,NE,45,0.0,-999.0,98,-99.99,,,0.01,Acu-Link.com,2013-07-08 10:36:00,
2013-07-08 06:51:00,69.1,68.5,29.95,NE,45,0.0,-999.0,98,-99.99,,,0.01,Acu-Link.com,2013-07-08 10:51:00,
2013-07-08 07:06:00,69.6,69.0,29.95,NNW,337,0.0,-999.0,98,-99.99,,,0.01,Acu-Link.com,2013-07-08 11:06:00,
2013-07-08 07:22:00,70.0,69.4,29.96,NE,45,0.0,-999.0,98,-99.99,,,0.01,Acu-Link.com,2013-07-08 11:22:00,
2013-07-08 07:37:00,70.2,69.6,29.96,NNE,22,0.0,-999.0,98,-99.99,,,0.01,Acu-Link.com,2013-07-08 11:37:00,
2013-07-08 07:52:00,70.7,70.1,29.96,NE,45,0.0,-999.0,98,-99.99,,,0.01,Acu-Link.com,2013-07-08 11:52:00,
2013-07-08 08:07:00,71.4,70.8,29.96,ENE,67,0.0,-999.0,98,-99.99,,,0.01,Acu-Link.com,2013-07-08 12:07:00,
2013-07-08 08:23:00,71.8,71.2,29.97,SE,135,0.0,-999.0,98,-99.99,,,0.01,Acu-Link.com,2013-07-08 12:23:00,
2013-07-08 08:38:00,71.8,71.2,29.97,SE,135,0.0,-999.0,98,-99.99,,,0.01,Acu-Link.com,2013-07-08 12:38:00,
2013-07-08 08:53:00,71.8,71.2,29.97,ESE,112,0.0,-999.0,98,-99.99,,,0.01,Acu-Link.com,2013-07-08 12:53:00,
2013-07-08 09:09:00,72.9,72.3,29.96,NE,45,2.7,-999.0,98,-99.99,,,0.01,Acu-Link.com,2013-07-08 13:09:00,
2013-07-08 09:24:00,73.4,71.6,29.97,NNE,22,1.7,-999.0,94,-99.99,,,0.01,Acu-Link.com,2013-07-08 13:24:00,
2013-07-08 09:39:00,74.1,72.3,29.97,ENE,67,1.1,-999.0,94,-99.99,,,0.01,Acu-Link.com,2013-07-08 13:39:00,
2013-07-08 09:54:00,74.3,72.5,29.97,NNE,22,2.2,-999.0,94,-99.99,,,0.01,Acu-Link.com,2013-07-08 13:54:00,
2013-07-08 10:10:00,76.1,73.3,29.97,NNW,337,2.2,-999.0,91,-99.99,,,0.02,Acu-Link.com,2013-07-08 14:10:00,
2013-07-08 10:25:00,75.6,73.1,29.97,SSE,157,0.0,-999.0,92,-99.99,,,0.02,Acu-Link.com,2013-07-08 14:25:00,
2013-07-08 10:40:00,75.9,73.1,29.97,East,90,0.0,-999.0,91,-99.99,,,0.02,Acu-Link.com,2013-07-08 14:40:00,
2013-07-08 10:55:00,76.5,73.0,29.97,NE,45,0.0,-999.0,89,-99.99,,,0.02,Acu-Link.com,2013-07-08 14:55:00,
2013-07-08 11:10:00,77.9,72.7,29.96,South,180,1.7,-999.0,84,-99.99,,,0.02,Acu-Link.com,2013-07-08 15:10:00,
2013-07-08 11:26:00,79.3,71.1,29.96,NNE,22,1.7,-999.0,76,-99.99,,,0.02,Acu-Link.com,2013-07-08 15:26:00,
2013-07-08 11:41:00,80.2,71.5,29.96,WNW,292,2.7,-999.0,75,-99.99,,,0.02,Acu-Link.com,2013-07-08 15:41:00,
2013-07-08 11:56:00,79.3,71.8,29.96,SW,225,1.1,-999.0,78,-99.99,,,0.02,Acu-Link.com,2013-07-08 15:56:00,
2013-07-08 12:12:00,79.0,72.3,29.97,South,180,0.0,-999.0,80,-99.99,,,0.02,Acu-Link.com,2013-07-08 16:12:00,
2013-07-08 12:27:00,80.4,73.3,29.97,NNW,337,0.0,-999.0,79,-99.99,,,0.02,Acu-Link.com,2013-07-08 16:27:00,
2013-07-08 12:43:00,84.7,73.8,29.96,NE,45,1.1,-999.0,70,-99.99,,,0.02,Acu-Link.com,2013-07-08 16:43:00,
2013-07-08 13:13:00,83.1,73.9,29.97,East,90,0.0,-999.0,74,-99.99,,,0.02,Acu-Link.com,2013-07-08 17:13:00,
2013-07-08 13:28:00,81.3,71.0,29.97,NE,45,2.2,-999.0,71,-99.99,,,0.02,Acu-Link.com,2013-07-08 17:28:00,
2013-07-08 13:59:00,74.3,72.8,29.96,SSE,157,2.2,-999.0,95,-99.99,,,0.05,Acu-Link.com,2013-07-08 17:59:00,
2013-07-08 14:14:00,77.7,74.9,29.96,ENE,67,0.0,-999.0,91,-99.99,,,0.06,Acu-Link.com,2013-07-08 18:14:00,
2013-07-08 15:00:00,80.8,73.3,29.96,NNW,337,1.1,-999.0,78,-99.99,,,0.06,Acu-Link.com,2013-07-08 19:00:00,
2013-07-08 15:15:00,80.8,72.5,29.96,SSE,157,1.1,-999.0,76,-99.99,,,0.06,Acu-Link.com,2013-07-08 19:15:00,
2013-07-08 15:31:00,78.6,70.8,29.97,West,270,1.7,-999.0,77,-99.99,,,0.07,Acu-Link.com,2013-07-08 19:31:00,
2013-07-08 15:46:00,75.4,72.3,29.97,NW,315,1.7,-999.0,90,-99.99,,,0.27,Acu-Link.com,2013-07-08 19:46:00,
2013-07-08 16:01:00,73.8,72.3,29.98,ESE,112,2.2,-999.0,95,-99.99,,,0.27,Acu-Link.com,2013-07-08 20:01:00,
2013-07-08 16:32:00,72.9,72.3,29.98,ESE,112,0.0,-999.0,98,-99.99,,,0.30,Acu-Link.com,2013-07-08 20:32:00,
2013-07-08 17:48:00,71.6,71.0,29.98,NE,45,0.0,-999.0,98,-99.99,,,0.31,Acu-Link.com,2013-07-08 21:48:00,
2013-07-08 18:04:00,71.1,70.5,29.98,NNW,337,0.0,-999.0,98,-99.99,,,0.31,Acu-Link.com,2013-07-08 22:04:00,
2013-07-08 18:19:00,70.5,69.9,29.99,WNW,292,0.0,-999.0,98,-99.99,,,0.31,Acu-Link.com,2013-07-08 22:19:00,
2013-07-08 18:34:00,70.5,69.9,29.99,NNW,337,0.0,-999.0,98,-99.99,,,0.31,Acu-Link.com,2013-07-08 22:34:00,
2013-07-08 19:20:00,70.3,69.7,30.00,NNE,22,0.0,-999.0,98,-99.99,,,0.31,Acu-Link.com,2013-07-08 23:20:00,
2013-07-08 19:51:00,70.3,69.7,30.01,South,180,0.0,-999.0,98,-99.99,,,0.31,Acu-Link.com,2013-07-08 23:51:00,
2013-07-08 20:21:00,69.8,69.2,30.01,South,180,0.0,-999.0,98,-99.99,,,0.31,Acu-Link.com,2013-07-09 00:21:00,
2013-07-08 20:36:00,69.6,69.0,30.01,SSE,157,0.0,-999.0,98,-99.99,,,0.31,Acu-Link.com,2013-07-09 00:36:00,
2013-07-08 20:52:00,69.6,69.0,30.02,SE,135,0.0,-999.0,98,-99.99,,,0.31,Acu-Link.com,2013-07-09 00:52:00,
2013-07-08 21:07:00,69.4,68.8,30.02,ESE,112,0.0,-999.0,98,-99.99,,,0.31,Acu-Link.com,2013-07-09 01:07:00,
2013-07-08 21:22:00,69.3,68.7,30.04,SSE,157,0.0,-999.0,98,-99.99,,,0.31,Acu-Link.com,2013-07-09 01:22:00,
2013-07-08 21:37:00,69.3,68.7,30.04,SW,225,0.0,-999.0,98,-99.99,,,0.31,Acu-Link.com,2013-07-09 01:37:00,
2013-07-08 21:53:00,69.3,68.7,30.05,WNW,292,0.0,-999.0,98,-99.99,,,0.31,Acu-Link.com,2013-07-09 01:53:00,
2013-07-08 22:23:00,68.4,67.8,30.05,North,0,3.2,-999.0,98,-99.99,,,0.31,Acu-Link.com,2013-07-09 02:23:00,
2013-07-08 22:39:00,67.5,66.9,30.06,NNE,22,2.7,-999.0,98,-99.99,,,0.31,Acu-Link.com,2013-07-09 02:39:00,
2013-07-08 23:09:00,66.9,66.3,30.05,NE,45,0.0,-999.0,98,-99.99,,,0.31,Acu-Link.com,2013-07-09 03:09:00,
2013-07-08 23:40:00,66.6,66.0,30.05,SE,135,0.0,-999.0,98,-99.99,,,0.32,Acu-Link.com,2013-07-09 03:40:00,
2013-07-08 23:55:00,66.6,66.0,30.06,South,180,0.0,-999.0,98,-99.99,,,0.32,Acu-Link.com,2013-07-09 03:55:00,